Regional Weather Roundup
Issued by NWS

Home | Current Version | Previous Version | Text Only | Print | Product List | Glossary Off
Versions: 1 2 3 4 5 6 7 8 9 10 11 12 13 14 15 16 17 18 19 20 21 22 23 24 25 26 27 28 29 30 31 32 33 34 35 36 37 38 39 40 41 42 43 44 45 46 47 48 49 50

000
ASUS43 KLSX 171310
RWRMO

WEATHER SUMMARY FOR MISSOURI
NATIONAL WEATHER SERVICE SPRINGFIELD MO
700 AM CST TUE JAN 17 2017

NOTE: "FAIR" INDICATES FEW OR NO CLOUDS BELOW 12,000 FEET WITH NO
       SIGNIFICANT WEATHER AND/OR OBSTRUCTIONS TO VISIBILITY.
       CURRENT SKY AND/OR WEATHER CONDITIONS ARE NOT AVAILABLE FOR
       CHILLICOTHE AND FARMINGTON.

MOZ001>031-035>038-043-044-053-054-171400-
...NORTHERN AND WESTERN MISSOURI...

CITY           SKY/WX    TMP DP  RH WIND       PRES   REMARKS
KANSAS CTY INT CLOUDY    34  33  96 W8        30.04R WCI  27
KANSAS C DTWN  CLOUDY    35  34  96 W6        30.05R FOG
LEE`S SUMMIT   CLOUDY    35  34  96 W7G20     30.04R WCI  29
ST JOSEPH      CLOUDY    33  33 100 NW9       30.04R FOG     WCI  25
CHILLICOTHE      N/A     35  33  92 W5        30.02R
KIRKSVILLE     CLOUDY    35  34  96 W6        29.97R

$$
MOZ066>068-077>081-088>096-101>105-171400-
...SOUTHWEST MISSOURI...

CITY           SKY/WX    TMP DP  RH WIND       PRES   REMARKS
SPRINGFIELD    CLOUDY    39  35  86 W10       30.06R
JOPLIN         CLOUDY    37  36  96 W6        30.09S
BRANSON        CLOUDY    39  36  87 W5        30.07R

$$
MOZ032>034-039>042-045>050-055>058-069>072-171400-
...CENTRAL MISSOURI...

CITY           SKY/WX    TMP DP  RH WIND       PRES   REMARKS
COLUMBIA       CLOUDY    38  37  97 W12       30.01R FOG
JEFFERSON CITY CLOUDY    40  37  89 W12       30.02R
ROLLA          CLOUDY    39  38  96 W14       29.99R
SEDALIA        CLOUDY    37  36  96 W8        30.04R FOG
WHITEMAN AFB   DRIZZLE   36  36 100 W9        30.03R WCI  29
WARRENSBURG    CLOUDY    34  34 100 W7        30.05R WCI  28
OSAGE BEACH    CLOUDY    39  36  89 SW9       30.04R

$$
MOZ051-052-059>065-171400-
...EAST CENTRAL MISSOURI...

CITY           SKY/WX    TMP DP  RH WIND       PRES   REMARKS
ST LOUIS INTL  CLOUDY    44  37  76 W14       29.97R
SPIRIT OF STL  CLOUDY    43  39  86 SW12      29.98R
ST CHARLES     CLOUDY    42  39  89 W7        29.98R

$$
MOZ072>076-082>087-097>100-106>115-171400-
...SOUTH CENTRAL AND SOUTHEAST MISSOURI...

CITY           SKY/WX    TMP DP  RH WIND       PRES   REMARKS
CAPE GIRARDEAU PTCLDY    44  40  85 W8        30.00R
FARMINGTON     CLOUDY    41  37  86 W9        30.00R
POPLAR BLUFF   PTCLDY    43  38  82 W6        30.03R
WEST PLAINS    CLOUDY    40  37  89 W8        30.04R

$$




USA.gov is the U.S. government's official web portal to all federal, state and local government web resources and services.